Location: Grabownica
(50.9167°N, 20.2592°E)
Time: 02:09:37
(UTC+01:00)

ISS - Visible Passes

Search period start: 23 January 2019 00:00
Search period end: 02 February 2019 00:00
Orbit: 404 x 411 km, 51.6° (Epoch: 23 January)

Date Brightness Start Highest point End Pass type
(mag) Time Alt. Az. Time Alt. Az. Time Alt. Az.
23 Jan -1.5 18:39:55 10° SSW 18:41:04 18° SSW 18:41:04 18° SSW visible
24 Jan -2.0 17:49:15 10° S 17:51:37 19° SE 17:52:03 18° SE visible
24 Jan -0.6 19:24:28 10° WSW 19:24:46 12° WSW 19:24:46 12° WSW visible
25 Jan -1.4 16:59:11 10° SSE 17:00:30 12° SE 17:01:49 10° ESE visible
25 Jan -2.8 18:33:14 10° SW 18:35:40 39° SSW 18:35:40 39° SSW visible
26 Jan -2.8 17:42:09 10° SW 17:45:10 33° SSE 17:46:30 23° ESE visible
26 Jan -1.0 19:18:12 10° W 19:19:13 19° W 19:19:13 19° W visible
27 Jan -3.8 18:26:50 10° WSW 18:30:00 74° SSW 18:30:00 74° SSW visible
28 Jan -3.5 17:35:31 10° WSW 17:38:46 56° SSE 17:40:44 21° E visible
28 Jan -1.4 19:11:58 10° W 19:13:26 24° W 19:13:26 24° W visible
29 Jan -4.0 18:20:32 10° W 18:23:51 83° N 18:24:08 71° ENE visible
30 Jan -3.8 17:29:06 10° WSW 17:32:24 84° SSE 17:34:49 17° E visible
30 Jan -1.9 19:05:42 10° W 19:07:31 30° WNW 19:07:31 30° WNW visible
31 Jan -3.8 18:14:14 10° W 18:17:32 76° N 18:18:11 54° ENE visible
31 Jan -0.2 19:50:49 10° WNW 19:50:54 11° W 19:50:54 11° W visible
01 Feb -3.8 17:22:45 10° W 17:26:03 79° N 17:28:51 14° E visible
01 Feb -2.4 18:59:21 10° WNW 19:01:34 39° W 19:01:34 39° W visible
